FDX503 KIAH-KMEM

Flight info

Callsign FDX503
Flight time 1h 11m
Altitude 33000
Route LURIC8 LURIC ELD HOBRK4
Aircraft A306/H-SDE3FGHIRWY/LB1

Departure

Time 2026-05-04 04:23
Airport George Bush Intercontinental Airport (KIAH)

Arrival

Time 2026-05-04 05:35
Airport Memphis International Airport (KMEM)
Time Latitude Longitude Altitude Speed Heading
2026-05-04 03:52 29.97856 -95.34586 106 ft 0 kts 359°
2026-05-04 04:13 29.97849 -95.34586 105 ft 4 kts 359°
2026-05-04 04:13 29.97831 -95.34585 105 ft 4 kts 359°
2026-05-04 04:14 29.97809 -95.34585 105 ft 4 kts 353°
2026-05-04 04:14 29.97783 -95.34579 105 ft 4 kts 339°
2026-05-04 04:14 29.97759 -95.34565 104 ft 4 kts 322°
2026-05-04 04:14 29.97752 -95.34558 104 ft 1 kts 317°
2026-05-04 04:18 29.97758 -95.34571 104 ft 6 kts 297°
2026-05-04 04:18 29.97756 -95.34648 106 ft 13 kts 246°
2026-05-04 04:18 29.97729 -95.34764 106 ft 15 kts 291°
2026-05-04 04:18 29.97803 -95.34839 106 ft 14 kts 330°
2026-05-04 04:19 29.97889 -95.34892 107 ft 14 kts 335°
2026-05-04 04:19 29.97979 -95.34947 107 ft 16 kts 330°
2026-05-04 04:19 29.98085 -95.35011 107 ft 19 kts 331°
2026-05-04 04:19 29.98207 -95.35090 108 ft 22 kts 332°
2026-05-04 04:20 29.98341 -95.35175 108 ft 21 kts 330°
2026-05-04 04:20 29.98465 -95.35254 108 ft 20 kts 333°
2026-05-04 04:20 29.98584 -95.35327 109 ft 19 kts 332°
2026-05-04 04:20 29.98693 -95.35394 109 ft 17 kts 332°
2026-05-04 04:21 29.98792 -95.35454 109 ft 9 kts 333°
2026-05-04 04:21 29.98808 -95.35496 109 ft 7 kts 267°
2026-05-04 04:21 29.98786 -95.35588 108 ft 16 kts 246°
2026-05-04 04:21 29.98770 -95.35626 109 ft 0 kts 243°
2026-05-04 04:22 29.98766 -95.35634 110 ft 4 kts 243°
2026-05-04 04:22 29.98737 -95.35692 111 ft 12 kts 229°
2026-05-04 04:22 29.98647 -95.35692 110 ft 18 kts 151°
2026-05-04 04:22 29.98464 -95.35576 110 ft 56 kts 152°
2026-05-04 04:23 29.97920 -95.35247 110 ft 118 kts 152°
2026-05-04 04:23 29.97031 -95.34695 108 ft 171 kts 149°
2026-05-04 04:23 29.95906 -95.33978 478 ft 197 kts 152°
2026-05-04 04:23 29.94611 -95.33196 927 ft 223 kts 153°
2026-05-04 04:24 29.93127 -95.32340 1217 ft 250 kts 154°
2026-05-04 04:24 29.91517 -95.31449 1694 ft 265 kts 155°
2026-05-04 04:24 29.89723 -95.30522 1695 ft 298 kts 155°
2026-05-04 04:24 29.87917 -95.29355 2597 ft 298 kts 146°
2026-05-04 04:25 29.86360 -95.27817 3660 ft 289 kts 128°
2026-05-04 04:25 29.85432 -95.25843 4949 ft 280 kts 106°
2026-05-04 04:25 29.85066 -95.23599 5515 ft 298 kts 92°
2026-05-04 04:25 29.85316 -95.21207 6230 ft 308 kts 76°
2026-05-04 04:26 29.85777 -95.18706 6691 ft 322 kts 80°
2026-05-04 04:26 29.86061 -95.16262 7641 ft 293 kts 81°
2026-05-04 04:26 29.86708 -95.14108 7938 ft 283 kts 57°
2026-05-04 04:26 29.88023 -95.12446 7995 ft 281 kts 36°
2026-05-04 04:27 29.89748 -95.11418 8134 ft 278 kts 15°
2026-05-04 04:27 29.91660 -95.11105 8668 ft 281 kts 357°
2026-05-04 04:27 29.93568 -95.11487 9561 ft 283 kts 339°
2026-05-04 04:27 29.95275 -95.12610 10421 ft 287 kts 321°
2026-05-04 04:28 29.96845 -95.14147 10845 ft 306 kts 317°
2026-05-04 04:28 29.98495 -95.15843 11176 ft 326 kts 317°
2026-05-04 04:28 30.00251 -95.17625 11521 ft 345 kts 317°
2026-05-04 04:28 30.02102 -95.19488 11843 ft 362 kts 317°
2026-05-04 04:29 30.04032 -95.21423 12280 ft 373 kts 319°
2026-05-04 04:29 30.06301 -95.22968 12875 ft 383 kts 336°
2026-05-04 04:29 30.08892 -95.23571 13532 ft 392 kts 355°
2026-05-04 04:29 30.11623 -95.23162 14154 ft 402 kts 13°
2026-05-04 04:30 30.14176 -95.21764 14702 ft 412 kts 30°
2026-05-04 04:30 30.16548 -95.19857 15271 ft 417 kts 33°
2026-05-04 04:30 30.18932 -95.17887 15825 ft 422 kts 32°
2026-05-04 04:30 30.21344 -95.15921 16383 ft 426 kts 32°
2026-05-04 04:31 30.23788 -95.13946 16944 ft 430 kts 31°
2026-05-04 04:31 30.26227 -95.11984 17466 ft 433 kts 31°
2026-05-04 04:31 30.28722 -95.09982 17990 ft 437 kts 31°
2026-05-04 04:31 30.31233 -95.07968 18485 ft 441 kts 31°
2026-05-04 04:32 30.33768 -95.05935 18912 ft 444 kts 31°
2026-05-04 04:32 30.36319 -95.03888 19335 ft 448 kts 31°
2026-05-04 04:32 30.38897 -95.01818 19752 ft 451 kts 30°
2026-05-04 04:32 30.41466 -94.99789 20171 ft 453 kts 29°
2026-05-04 04:33 30.44106 -94.97768 20598 ft 456 kts 28°
2026-05-04 04:33 30.46760 -94.95744 21022 ft 459 kts 28°
2026-05-04 04:33 30.49441 -94.93697 21432 ft 462 kts 28°
2026-05-04 04:33 30.52137 -94.91636 21833 ft 465 kts 28°
2026-05-04 04:34 30.54843 -94.89563 22231 ft 468 kts 28°
2026-05-04 04:34 30.57572 -94.87471 22636 ft 471 kts 28°
2026-05-04 04:34 30.60319 -94.85362 23011 ft 474 kts 28°
2026-05-04 04:34 30.63082 -94.83239 23393 ft 478 kts 28°
2026-05-04 04:35 30.65864 -94.81101 23751 ft 481 kts 28°
2026-05-04 04:35 30.68625 -94.78977 24050 ft 483 kts 28°
2026-05-04 04:35 30.71444 -94.76806 24362 ft 486 kts 28°
2026-05-04 04:35 30.74277 -94.74623 24669 ft 489 kts 28°
2026-05-04 04:36 30.77117 -94.72433 24974 ft 491 kts 28°
2026-05-04 04:36 30.79975 -94.70227 25268 ft 494 kts 27°
2026-05-04 04:36 30.82852 -94.68005 25557 ft 496 kts 27°
2026-05-04 04:36 30.85727 -94.65783 25847 ft 498 kts 27°
2026-05-04 04:37 30.94420 -94.59055 26674 ft 505 kts 27°
2026-05-04 04:37 30.97352 -94.56783 26939 ft 507 kts 27°
2026-05-04 04:38 31.00293 -94.54502 27277 ft 507 kts 27°
2026-05-04 04:38 31.03226 -94.52227 27691 ft 505 kts 27°
2026-05-04 04:38 31.06150 -94.49958 28084 ft 504 kts 26°
2026-05-04 04:38 31.09070 -94.47691 28476 ft 503 kts 26°
2026-05-04 04:39 31.11985 -94.45427 28901 ft 502 kts 26°
2026-05-04 04:39 31.14884 -94.43173 29318 ft 501 kts 26°
2026-05-04 04:39 31.17781 -94.40920 29721 ft 500 kts 26°
2026-05-04 04:39 31.20670 -94.38669 30139 ft 499 kts 26°
2026-05-04 04:40 31.23562 -94.36413 30483 ft 498 kts 26°
2026-05-04 04:40 31.26445 -94.34163 30782 ft 498 kts 25°
2026-05-04 04:40 31.29325 -94.31914 31058 ft 499 kts 25°
2026-05-04 04:40 31.32190 -94.29676 31369 ft 499 kts 25°
2026-05-04 04:41 31.35067 -94.27425 31677 ft 499 kts 25°
2026-05-04 04:41 31.37969 -94.25154 32008 ft 499 kts 25°
2026-05-04 04:41 31.40860 -94.22889 32305 ft 499 kts 25°
2026-05-04 04:41 31.43749 -94.20624 32618 ft 499 kts 25°
2026-05-04 04:42 31.46600 -94.18386 32929 ft 499 kts 25°
2026-05-04 04:42 31.49485 -94.16122 33113 ft 500 kts 25°
2026-05-04 04:42 31.55256 -94.11587 33134 ft 499 kts 25°
2026-05-04 04:43 31.61021 -94.07048 33136 ft 499 kts 25°
2026-05-04 04:43 31.66787 -94.02502 33130 ft 499 kts 25°
2026-05-04 04:44 31.72550 -93.97952 33129 ft 498 kts 26°
2026-05-04 04:44 31.78270 -93.93430 33126 ft 498 kts 26°
2026-05-04 04:45 31.84020 -93.88874 33127 ft 498 kts 26°
2026-05-04 04:47 32.04104 -93.72904 33119 ft 498 kts 26°
2026-05-04 04:47 32.09860 -93.68311 33121 ft 498 kts 26°
2026-05-04 04:48 32.15592 -93.63730 33118 ft 497 kts 26°
2026-05-04 04:49 32.29893 -93.52272 33109 ft 497 kts 26°
2026-05-04 04:49 32.35584 -93.47700 33109 ft 497 kts 26°
2026-05-04 04:50 32.41310 -93.43091 33111 ft 497 kts 26°
2026-05-04 04:50 32.47034 -93.38478 33118 ft 497 kts 26°
2026-05-04 04:51 32.52751 -93.33863 33116 ft 496 kts 27°
2026-05-04 04:51 32.58425 -93.29276 33122 ft 497 kts 27°
2026-05-04 04:52 32.64136 -93.24653 33123 ft 496 kts 27°
2026-05-04 04:52 32.69843 -93.20023 33120 ft 496 kts 27°
2026-05-04 04:53 32.75546 -93.15390 33122 ft 496 kts 27°
2026-05-04 04:53 32.81250 -93.10751 33114 ft 496 kts 27°
2026-05-04 04:54 32.86920 -93.06132 33105 ft 497 kts 27°
2026-05-04 04:54 32.92635 -93.01466 33104 ft 497 kts 27°
2026-05-04 04:55 32.98344 -92.96800 33103 ft 497 kts 27°
2026-05-04 04:55 33.04011 -92.92160 33103 ft 497 kts 27°
2026-05-04 04:56 33.09719 -92.87480 33107 ft 497 kts 27°
2026-05-04 04:56 33.15423 -92.82795 33103 ft 498 kts 27°
2026-05-04 04:57 33.21126 -92.78103 33107 ft 498 kts 27°
2026-05-04 04:57 33.26481 -92.72735 33100 ft 513 kts 44°
2026-05-04 04:58 33.30691 -92.65762 33101 ft 518 kts 50°
2026-05-04 04:58 33.34770 -92.58695 33095 ft 519 kts 50°
2026-05-04 04:59 33.38888 -92.51581 33094 ft 519 kts 50°
2026-05-04 04:59 33.42981 -92.44511 33086 ft 519 kts 50°
2026-05-04 05:00 33.47094 -92.37394 33084 ft 518 kts 50°
2026-05-04 05:01 33.53225 -92.26764 33092 ft 518 kts 50°
2026-05-04 05:01 33.56656 -92.20801 33073 ft 518 kts 50°
2026-05-04 05:02 33.60741 -92.13689 33081 ft 517 kts 50°
2026-05-04 05:02 33.64796 -92.06615 33088 ft 517 kts 50°
2026-05-04 05:03 33.68869 -91.99497 33079 ft 517 kts 50°
2026-05-04 05:04 33.76982 -91.85272 33083 ft 514 kts 51°
2026-05-04 05:04 33.81013 -91.78183 33084 ft 513 kts 51°
2026-05-04 05:06 33.97644 -91.50618 33081 ft 503 kts 43°
2026-05-04 05:07 34.02268 -91.44280 33077 ft 502 kts 43°
2026-05-04 05:07 34.06845 -91.37977 33082 ft 501 kts 44°
2026-05-04 05:09 34.24679 -91.13286 28227 ft 461 kts 44°
2026-05-04 05:09 34.26764 -91.10394 27565 ft 451 kts 44°
2026-05-04 05:10 34.28807 -91.07560 26911 ft 443 kts 44°
2026-05-04 05:10 34.30812 -91.04776 26286 ft 435 kts 44°
2026-05-04 05:10 34.32761 -91.02069 25669 ft 428 kts 44°
2026-05-04 05:10 34.34701 -90.99373 25038 ft 423 kts 44°
2026-05-04 05:11 34.36622 -90.96699 24441 ft 418 kts 44°
2026-05-04 05:11 34.38524 -90.94052 23827 ft 414 kts 44°
2026-05-04 05:11 34.40408 -90.91428 23107 ft 411 kts 44°
2026-05-04 05:11 34.42275 -90.88824 22451 ft 406 kts 44°
2026-05-04 05:12 34.44112 -90.86260 21845 ft 400 kts 44°
2026-05-04 05:12 34.45923 -90.83730 21232 ft 396 kts 44°
2026-05-04 05:12 34.47686 -90.81263 20928 ft 383 kts 45°
2026-05-04 05:12 34.49397 -90.78863 20564 ft 373 kts 45°
2026-05-04 05:13 34.51071 -90.76465 19941 ft 373 kts 45°
2026-05-04 05:13 34.52728 -90.74049 19340 ft 371 kts 46°
2026-05-04 05:13 34.54380 -90.71635 18747 ft 370 kts 46°
2026-05-04 05:13 34.56020 -90.69236 18147 ft 368 kts 46°
2026-05-04 05:14 34.57655 -90.66843 17481 ft 366 kts 46°
2026-05-04 05:14 34.59254 -90.64501 16870 ft 363 kts 46°
2026-05-04 05:14 34.60853 -90.62157 16285 ft 358 kts 46°
2026-05-04 05:14 34.62414 -90.59811 15764 ft 354 kts 47°
2026-05-04 05:15 34.63936 -90.57444 15502 ft 357 kts 48°
2026-05-04 05:15 34.65456 -90.55068 15168 ft 356 kts 48°
2026-05-04 05:15 34.66975 -90.52693 14834 ft 354 kts 48°
2026-05-04 05:15 34.68485 -90.50332 14505 ft 353 kts 48°
2026-05-04 05:16 34.69991 -90.47977 14185 ft 349 kts 48°
2026-05-04 05:16 34.71472 -90.45658 13879 ft 345 kts 48°
2026-05-04 05:16 34.72902 -90.43415 13654 ft 334 kts 48°
2026-05-04 05:16 34.74293 -90.41229 13351 ft 321 kts 48°
2026-05-04 05:17 34.75639 -90.39117 13043 ft 307 kts 48°
2026-05-04 05:17 34.76912 -90.37116 12793 ft 292 kts 48°
2026-05-04 05:17 34.78176 -90.35140 12510 ft 299 kts 48°
2026-05-04 05:17 34.79440 -90.33159 12203 ft 290 kts 48°
2026-05-04 05:18 34.80673 -90.31226 11952 ft 297 kts 48°
2026-05-04 05:18 34.81926 -90.29258 11655 ft 288 kts 48°
2026-05-04 05:18 34.83166 -90.27309 11431 ft 294 kts 49°
2026-05-04 05:18 34.84405 -90.25358 11130 ft 286 kts 49°
2026-05-04 05:19 34.85591 -90.23484 10835 ft 271 kts 49°
2026-05-04 05:19 34.86712 -90.21712 10569 ft 257 kts 48°
2026-05-04 05:19 34.87776 -90.20031 10334 ft 244 kts 48°
2026-05-04 05:19 34.88808 -90.18406 10117 ft 243 kts 48°
2026-05-04 05:20 34.89832 -90.16797 9880 ft 245 kts 49°
2026-05-04 05:20 34.90869 -90.15162 9629 ft 242 kts 49°
2026-05-04 05:20 34.91902 -90.13534 9416 ft 244 kts 48°
2026-05-04 05:20 34.93068 -90.12056 9177 ft 239 kts 32°
2026-05-04 05:21 34.94554 -90.11245 8960 ft 232 kts
2026-05-04 05:21 34.96150 -90.11086 8746 ft 229 kts 358°
2026-05-04 05:21 34.97744 -90.11070 8519 ft 228 kts 357°
2026-05-04 05:21 34.99327 -90.11060 8315 ft 227 kts 357°
2026-05-04 05:22 35.00914 -90.11043 8098 ft 228 kts 357°
2026-05-04 05:22 35.02494 -90.11021 7954 ft 226 kts 357°
2026-05-04 05:22 35.04069 -90.10995 7622 ft 226 kts 357°
2026-05-04 05:22 35.05643 -90.10967 7410 ft 225 kts 357°
2026-05-04 05:23 35.07205 -90.10937 7192 ft 225 kts 357°
2026-05-04 05:23 35.08751 -90.10908 6974 ft 224 kts 357°
2026-05-04 05:23 35.10300 -90.10899 6761 ft 223 kts 356°
2026-05-04 05:23 35.11855 -90.10915 6560 ft 222 kts 355°
2026-05-04 05:24 35.13394 -90.10935 6339 ft 222 kts 355°
2026-05-04 05:24 35.14942 -90.10959 6133 ft 221 kts 355°
2026-05-04 05:24 35.16485 -90.10982 5919 ft 222 kts 355°
2026-05-04 05:24 35.18027 -90.11005 5708 ft 222 kts 356°
2026-05-04 05:25 35.19576 -90.11028 5507 ft 222 kts 356°
2026-05-04 05:25 35.21109 -90.11050 5293 ft 220 kts 356°
2026-05-04 05:25 35.22629 -90.11073 5098 ft 221 kts 355°
2026-05-04 05:25 35.24169 -90.11096 4879 ft 221 kts 356°
2026-05-04 05:26 35.25705 -90.11118 4664 ft 220 kts 356°
2026-05-04 05:26 35.27241 -90.11140 4475 ft 221 kts 356°
2026-05-04 05:26 35.28783 -90.11163 4265 ft 221 kts 356°
2026-05-04 05:26 35.30317 -90.11188 4071 ft 221 kts 356°
2026-05-04 05:27 35.31859 -90.11147 3949 ft 227 kts
2026-05-04 05:28 35.30190 -90.01679 2582 ft 227 kts 143°
2026-05-04 05:29 35.28959 -90.00464 2474 ft 226 kts 143°
2026-05-04 05:29 35.27749 -89.99236 2405 ft 225 kts 147°
2026-05-04 05:29 35.26475 -89.98196 2233 ft 217 kts 163°
2026-05-04 05:29 35.25047 -89.97740 2136 ft 209 kts 180°
2026-05-04 05:31 35.16895 -89.97553 1987 ft 134 kts 186°
2026-05-04 05:31 35.15960 -89.97534 1984 ft 135 kts 187°
2026-05-04 05:32 35.15011 -89.97514 1997 ft 137 kts 187°
2026-05-04 05:32 35.14055 -89.97493 1989 ft 138 kts 187°
2026-05-04 05:32 35.13100 -89.97472 1941 ft 134 kts 185°
2026-05-04 05:33 35.11342 -89.97432 1602 ft 125 kts 187°
2026-05-04 05:33 35.10469 -89.97415 1434 ft 126 kts 185°
2026-05-04 05:33 35.09590 -89.97397 1269 ft 127 kts 184°
2026-05-04 05:33 35.08703 -89.97377 1098 ft 129 kts 183°
2026-05-04 05:34 35.07809 -89.97358 914 ft 128 kts 181°
2026-05-04 05:34 35.06909 -89.97339 740 ft 130 kts 181°
2026-05-04 05:34 35.05992 -89.97327 618 ft 133 kts 178°
2026-05-04 05:34 35.05078 -89.97293 403 ft 129 kts 180°
2026-05-04 05:35 35.04195 -89.97263 349 ft 125 kts 180°
2026-05-04 05:35 35.03469 -89.97252 334 ft 66 kts 178°
2026-05-04 05:35 35.03137 -89.97253 333 ft 43 kts 181°
2026-05-04 05:35 35.02857 -89.97272 334 ft 36 kts 192°
2026-05-04 05:36 35.02737 -89.97394 333 ft 18 kts 300°
2026-05-04 05:36 35.02853 -89.97430 332 ft 17 kts 356°
2026-05-04 05:36 35.02989 -89.97436 332 ft 23 kts
2026-05-04 05:36 35.03110 -89.97437 332 ft 0 kts 356°
2026-05-04 05:37 35.03114 -89.97437 332 ft 4 kts 357°
2026-05-04 05:37 35.03127 -89.97438 331 ft 0 kts 357°
2026-05-04 05:37 35.03128 -89.97438 331 ft 1 kts 357°
2026-05-04 05:38 35.03314 -89.97442 329 ft 24 kts 359°
2026-05-04 05:38 35.03477 -89.97445 332 ft 23 kts 359°
2026-05-04 05:38 35.03632 -89.97448 331 ft 22 kts 359°
2026-05-04 05:38 35.03786 -89.97449 331 ft 22 kts
2026-05-04 05:39 35.03936 -89.97451 332 ft 21 kts 357°
2026-05-04 05:39 35.04253 -89.97459 331 ft 25 kts 358°
2026-05-04 05:39 35.04439 -89.97464 332 ft 28 kts 359°
2026-05-04 05:40 35.04867 -89.97473 331 ft 33 kts 360°
2026-05-04 05:40 35.05104 -89.97476 331 ft 34 kts 357°
2026-05-04 05:40 35.05336 -89.97484 331 ft 33 kts 359°
2026-05-04 05:41 35.05558 -89.97488 333 ft 30 kts 359°
2026-05-04 05:41 35.05762 -89.97487 333 ft 28 kts
2026-05-04 05:41 35.05926 -89.97528 332 ft 22 kts 318°
2026-05-04 05:41 35.05984 -89.97691 332 ft 20 kts 285°
2026-05-04 05:42 35.06074 -89.97784 333 ft 18 kts 352°
2026-05-04 05:42 35.06185 -89.97791 334 ft 15 kts
2026-05-04 05:42 35.06268 -89.97772 334 ft 9 kts 57°
2026-05-04 05:42 35.06271 -89.97740 333 ft 3 kts 85°
2026-05-04 05:43 35.06272 -89.97714 333 ft 0 kts 89°